Location: Observatoire
(46.1952°N, 5.3391°E)
Time: 22:59:19
(UTC+01:00)

Tiros 1 despin weight - Pass Details

Date: 17 February 2026
Orbit: 556 x 593 km, 48.2° (Epoch: 7 March)

Event Time Altitude Azimuth Distance (km) Brightness Sun altitude
Rises 19:44:46 0° 284° (WNW) 2,733 ? -17.5°
Reaches altitude 10° 19:47:01 10° 286° (WNW) 1,837 ? -17.9°
Maximum altitude 19:51:13 82° 13° (NNE) 567 ? -18.6°
Enters shadow 19:52:22 47° 95° (E) 745 ? -18.8°
Drops below altitude 10° 19:55:26 10° 102° (ESE) 1,842 - -19.3°
Sets 19:57:41 0° 103° (ESE) 2,741 - -19.7°
